Orbital Elements at Epoch 2459200.5 (2020-Dec-17.0) TDB
Reference: JPL 25 (heliocentric ecliptic J2000)
Element | Value | Uncertainty (1-sigma) | Units |
e | .2167445122050461 | 5.4326e-08 | |
a | 2.540200310299943 | 8.0552e-09 | au |
q | 1.989625833140875 | 1.4059e-07 | au |
i | 11.68192195072257 | 5.1003e-06 | deg |
node | 169.5079089217566 | 1.6245e-05 | deg |
peri | 220.8272771609461 | 1.8731e-05 | deg |
M | 89.26081935361432 | 8.4653e-06 | deg |
tp | 2458833.844045563171 (2019-Dec-16.34404556) | 3.3987e-05 | TDB |
period | 1478.769123486805 4.05 | 7.0339e-06 1.926e-08 | d yr |
n | .2434457105455058 | 1.158e-09 | deg/d |
Q | 3.090774787459011 | 9.8011e-09 | au |
|
| | Orbit Determination Parameters
Additional Information
|